Location: Newark
(31.5350°N, 35.0986°E)
Time: 11:54:29
(UTC+00:00)

Explorer 7 - Pass Details

Date: 25 October 2019
Orbit: 485 x 680 km, 50.3° (Epoch: 17 November)

Event Time Altitude Azimuth Distance (km) Brightness Sun altitude
Rises 05:24:51 0° 207° (SSW) 2,664 10.3 18.2°
Reaches altitude 10° 05:27:14 10° 198° (SSW) 1,746 9.6 18.6°
Maximum altitude 05:30:50 35° 132° (SE) 833 9.5 19.3°
Drops below altitude 10° 05:34:19 10° 65° (ENE) 1,685 9.9 19.9°
Sets 05:36:35 0° 57° (ENE) 2,555 10.6 20.4°
